Topeka, KS

8:29 PM CDT on April 26, 2018 (GMT -0500)
Billard Municipal

Weather History for KTOP - February, 2013

Change the Weather History Date:

Saturday, February 2, 2013

  Actual Average Record
Temperature  
Mean Temperature 39 °F 31 °F  
Max Temperature 51 °F 42 °F 72 °F (1924)
Min Temperature 27 °F 21 °F -15 °F (1905)
Degree Days  
Heating Degree Days 26 34  
Month to date heating degree days 73 68  
Since 1 July heating degree days 2781 3178  
Cooling Degree Days 0 0  
Month to date cooling degree days 0 0  
Year to date cooling degree days 0 0  
Moisture  
Dew Point 26 °F    
Average Humidity 60    
Maximum Humidity 69    
Minimum Humidity 50    
Precipitation  
Precipitation 0.00 in 0.04 in 0.55 in (1943)
Month to date precipitation 0.00 0.08  
Year to date precipitation 0.55 0.94  
Snow  
Snow 0.00 in 0.20 in 3.40 in (1913)
Month to date snowfall 0.0 0.4  
Year to date snowfall 1.5 5.3  
Since 1 July snowfall 6.9 11.8  
Snow Depth 0.00 in    
Sea Level Pressure  
Sea Level Pressure 30.19 in    
Wind  
Wind Speed 7 mph (West)    
Max Wind Speed 15 mph    
Max Gust Speed 19 mph    
Visibility 10 miles    
Events      
T = Trace of Precipitation, MM = Missing Value Source: NWS Daily Summary

Daily Weather History Graph

Daily Weather History Graph

Search for Another Location

Airport or City:

Astronomy

Feb. 02, 2013 Rise Set
Actual Time 7:27 AM CST 5:45 PM CST
Civil Twilight 6:59 AM CST 6:13 PM CST
Nautical Twilight 6:27 AM CST 6:45 PM CST
Astronomical Twilight 5:56 AM CST 7:16 PM CST
Moon No Moon Rise 10:42 AM CST (2/2)
Length of Visible Light 11h 13m
Length of Day
10h 17m
Waning Gibbous, 59% of the Moon is Illuminated
Feb 2
Waning Gibbous
Feb 3
Last Quarter
Feb 10
New
Feb 17
First Quarter
Feb 25
Full

Hourly Weather History & Observations

Time (CST) Temp. Windchill Dew Point Humidity Pressure Visibility Wind Dir Wind Speed Gust Speed Precip Events Conditions
12:53 AM 28.0 °F 24.2 °F 15.1 °F 58% 30.16 in 10.0 mi SW 3.5 mph - N/A   Overcast
1:53 AM 28.9 °F - 16.0 °F 58% 30.17 in 10.0 mi Calm Calm - N/A   Overcast
2:53 AM 28.4 °F 22.2 °F 15.8 °F 59% 30.15 in 10.0 mi SW 5.8 mph - N/A   Mostly Cloudy
3:53 AM 30.0 °F 26.5 °F 18.0 °F 61% 30.18 in 10.0 mi WNW 3.5 mph - N/A   Overcast
4:53 AM 28.0 °F 22.8 °F 19.0 °F 69% 30.19 in 10.0 mi West 4.6 mph - N/A   Scattered Clouds
5:53 AM 28.0 °F 20.8 °F 19.0 °F 69% 30.20 in 10.0 mi West 6.9 mph - N/A   Scattered Clouds
6:53 AM 28.9 °F 21.9 °F 19.9 °F 69% 30.21 in 10.0 mi WNW 6.9 mph - N/A   Clear
7:53 AM 28.0 °F 21.7 °F 19.9 °F 72% 30.23 in 10.0 mi West 5.8 mph - N/A   Partly Cloudy
8:53 AM 30.9 °F 22.2 °F 21.9 °F 69% 30.23 in 10.0 mi West 10.4 mph - N/A   Clear
9:53 AM 35.1 °F 27.9 °F 25.0 °F 67% 30.24 in 10.0 mi West 9.2 mph - N/A   Scattered Clouds
10:53 AM 39.9 °F 33.9 °F 28.0 °F 63% 30.25 in 10.0 mi West 9.2 mph - N/A   Partly Cloudy
11:53 AM 44.1 °F 39.0 °F 30.9 °F 60% 30.24 in 10.0 mi West 9.2 mph - N/A   Clear
12:53 PM 46.9 °F - 33.1 °F 59% 30.21 in 10.0 mi WNW 8.1 mph - N/A   Clear
1:53 PM 48.9 °F - 34.0 °F 56% 30.19 in 10.0 mi WSW 10.4 mph - N/A   Clear
2:53 PM 51.1 °F - 33.1 °F 50% 30.18 in 10.0 mi West 10.4 mph - N/A   Clear
3:53 PM 51.1 °F - 33.1 °F 50% 30.16 in 10.0 mi West 12.7 mph - N/A   Clear
4:53 PM 50.0 °F - 32.0 °F 50% 30.15 in 10.0 mi West 6.9 mph - N/A   Clear
5:53 PM 46.0 °F 43.9 °F 32.0 °F 58% 30.16 in 10.0 mi West 4.6 mph - N/A   Clear
6:53 PM 46.0 °F 43.9 °F 32.0 °F 58% 30.15 in 10.0 mi SW 4.6 mph - N/A   Clear
7:53 PM 46.0 °F 41.9 °F 32.0 °F 58% 30.13 in 10.0 mi SW 8.1 mph - N/A   Overcast
8:53 PM 45.0 °F 39.3 °F 30.9 °F 58% 30.14 in 10.0 mi West 11.5 mph - N/A   Clear
9:53 PM 43.0 °F 37.7 °F 30.9 °F 62% 30.17 in 10.0 mi NNW 9.2 mph - N/A   Scattered Clouds
10:53 PM 41.0 °F 38.0 °F 30.0 °F 65% 30.17 in 10.0 mi West 4.6 mph - N/A   Clear
11:53 PM 37.0 °F 31.6 °F 28.9 °F 73% 30.18 in 10.0 mi West 6.9 mph - N/A   Clear